Location: Melbourne
(37.8170°S, 144.9670°E)
Time: 15:35:28
(UTC+10:00)

deb Explorer IX - All Passes

Search period start: 27 April 2015 00:00
Search period end: 07 May 2015 00:00
Orbit: 548 x 1159 km, 38.8° (Epoch: 23 April)

Date Brightness Start Highest point End Pass type
(mag) Time Alt. Az. Time Alt. Az. Time Alt. Az.
27 Apr - 14:00:38 10° NW 14:05:18 35° NNE 14:09:26 10° E daylight
27 Apr - 15:47:56 10° WNW 15:52:38 88° N 15:56:53 10° E daylight
27 Apr - 17:35:50 10° W 17:40:09 82° S 17:44:19 10° E daylight
27 Apr - 19:23:30 10° W 19:27:27 44° NNW 19:31:31 10° NE visible
27 Apr - 21:13:18 10° NW 21:14:25 11° NW 21:15:22 10° NNW visible
28 Apr - 12:03:10 10° NNE 12:04:51 11° NE 12:06:41 10° NE daylight
28 Apr - 13:47:09 10° NW 13:52:06 40° NNE 13:56:25 10° E daylight
28 Apr - 15:34:41 10° W 15:39:30 88° S 15:43:47 10° E daylight
28 Apr - 17:22:39 10° W 17:27:03 85° S 17:31:12 10° E daylight
28 Apr - 19:10:24 10° W 19:14:17 38° NNW 19:18:13 10° NE visible
29 Apr - 11:48:44 10° N 11:51:35 14° NNE 11:54:25 10° ENE daylight
29 Apr - 13:33:41 10° NW 13:38:53 46° NNE 13:43:22 10° E daylight
29 Apr - 15:21:25 10° W 15:26:21 85° S 15:30:40 10° E daylight
29 Apr - 17:09:26 10° W 17:13:54 89° S 17:18:03 10° E daylight
29 Apr - 18:57:17 10° W 19:01:06 34° NNW 19:04:52 10° NE visible
30 Apr - 11:34:37 10° N 11:38:17 17° NNE 11:41:46 10° ENE daylight
30 Apr - 13:20:12 10° NW 13:25:38 51° NNE 13:30:16 10° E daylight
30 Apr - 15:08:06 10° W 15:13:10 82° S 15:17:33 10° E daylight
30 Apr - 16:56:11 10° W 17:00:44 87° NNW 17:04:54 10° ENE daylight
30 Apr - 18:44:10 10° W 18:47:52 30° NNW 18:51:30 10° NNE visible
01 May - 11:20:39 10° NNW 11:24:57 20° NNE 11:28:57 10° E daylight
01 May - 13:06:43 10° WNW 13:12:22 57° NNE 13:17:09 10° E daylight
01 May - 14:54:46 10° W 14:59:57 80° S 15:04:24 10° E daylight
01 May - 16:42:53 10° W 16:47:31 82° NNW 16:51:43 10° ENE daylight
01 May - 18:31:01 10° W 18:34:37 26° NNW 18:38:04 10° NNE visible
02 May - 11:06:44 10° NNW 11:11:36 24° NNE 11:16:01 10° E daylight
02 May - 12:53:13 10° WNW 12:59:04 63° NNE 13:03:59 10° E daylight
02 May - 14:41:24 10° W 14:46:43 79° S 14:51:14 10° E daylight
02 May - 16:29:33 10° W 16:34:17 76° NNW 16:38:31 10° ENE daylight
02 May - 18:17:52 10° W 18:21:19 23° NNW 18:24:36 10° NNE visible
03 May - 10:52:52 10° NNW 10:58:13 27° NNE 11:02:59 10° E daylight
03 May - 12:39:41 10° WNW 12:45:44 69° NNE 12:50:48 10° E daylight
03 May - 14:27:59 10° W 14:33:27 79° S 14:38:03 10° E daylight
03 May - 16:16:12 10° W 16:21:01 71° NNW 16:25:16 10° ENE daylight
03 May - 18:04:43 10° W 18:07:59 20° NNW 18:11:03 10° NNE visible
04 May - 10:39:03 10° NNW 10:44:47 31° NNE 10:49:52 10° E daylight
04 May - 12:26:10 10° WNW 12:32:22 74° NNE 12:37:35 10° E daylight
04 May - 14:14:33 10° W 14:20:09 79° S 14:24:52 10° E daylight
04 May - 16:02:48 10° W 16:07:43 65° NNW 16:12:00 10° ENE daylight
04 May - 17:51:34 10° WNW 17:54:38 18° NW 17:57:27 10° N visible
05 May - 10:25:15 10° NW 10:31:20 35° NNE 10:36:42 10° E daylight
05 May - 12:12:36 10° WNW 12:18:59 79° NNE 12:24:20 10° E daylight
05 May - 14:01:05 10° W 14:06:49 80° S 14:11:38 10° E daylight
05 May - 15:49:23 10° W 15:54:23 60° NNW 15:58:42 10° ENE daylight
05 May - 17:38:28 10° WNW 17:41:14 16° NW 17:43:46 10° N daylight
06 May - 08:27:56 10° NNE 08:30:24 12° NE 08:33:06 10° ENE daylight
06 May - 10:11:28 10° NW 10:17:51 39° NNE 10:23:28 10° E daylight
06 May - 11:59:02 10° WNW 12:05:34 83° NNE 12:11:03 10° E daylight
06 May - 13:47:34 10° W 13:53:28 81° S 13:58:23 10° E daylight
06 May - 15:35:56 10° W 15:41:01 55° NNW 15:45:23 10° NE daylight
06 May - 17:25:23 10° WNW 17:27:48 14° NW 17:29:57 10° N daylight
